Location: 22
(39.7117°N, 89.5929°W)
Time: 19:07:00
(UTC-05:00)

Vanguard 3 - Pass Details

Date: 31 January 2023
Orbit: 508 x 3249 km, 33.4° (Epoch: 30 March)

Event Time Altitude Azimuth Distance (km) Brightness Sun altitude
Rises 16:40:32 0° 185° (S) 3,840 11.1 5.5°
Reaches altitude 10° 16:44:19 10° 162° (SSE) 3,333 10.4 4.8°
Maximum altitude 16:48:56 15° 129° (SE) 3,454 10.2 4.0°
Drops below altitude 10° 16:54:51 10° 99° (E) 4,509 10.5 3.0°
Sets 17:01:36 0° 81° (E) 6,147 11.0 1.8°
